Regional Weather Roundup
Issued by NWS

Home | Current Version | Previous Version | Graphics & Text | Print | Product List | Glossary On
Versions: 1 2 3 4 5 6 7 8 9 10 11 12 13 14 15 16 17 18 19 20 21 22 23 24 25 26 27 28 29 30 31 32 33 34 35 36 37 38 39 40 41 42 43 44 45 46 47 48 49 50
000
ASUS43 KDMX 040707
RWRIA

WEATHER ROUNDUP FOR IOWA
NATIONAL WEATHER SERVICE DES MOINES IA
200 AM CDT TUE AUG 04 2015

NOTE: "FAIR" INDICATES FEW OR NO CLOUDS BELOW 12,000 FEET WITH NO
SIGNIFICANT WEATHER AND/OR OBSTRUCTIONS TO VISIBILITY.

* - THESE STATIONS ARE NOT NWS STATIONS...THUS NOT UNDER NWS
QUALITY CONTROL.  THEY ALSO DO NOT REPORT WEATHER SUCH
AS PRECIPITATION OR FOG.

IAZ001>003-012>014-020>022-031>034-043>046-040800-
   NORTHWEST IOWA

CITY           SKY/WX    TMP DP  RH WIND       PRES   REMARKS
CARROLL *      MOCLDY    61  61 100 CALM      29.98S
CHEROKEE *     CLEAR     61  61 100 CALM      29.99S
DENISON *      CLOUDY    66  64  94 CALM      29.96F
LE MARS *        N/A    N/A N/A N/A CALM      29.98F
ORANGE CITY *  CLEAR     64  61  88 CALM      29.98F
SHELDON *      CLEAR     57  57 100 SE3       29.98F
SIOUX CITY     CLOUDY    68  62  81 E5        29.97F
SPENCER        PTCLDY    60  55  83 N6        29.99F
STORM LAKE *   CLEAR     63  57  82 SW6       30.00S
$$

IAZ055>058-069>071-079>083-090>094-040800-
   SOUTHWEST IOWA

CITY           SKY/WX    TMP DP  RH WIND       PRES   REMARKS
ATLANTIC *     MOCLDY    64  64 100 N6        29.97F
AUDUBON *      CLOUDY    64  61  88 CALM      29.99F
CLARINDA *     MOCLDY    70  64  83 CALM      29.97F
COUNCIL BLFS *   N/A     70  63  78 E6        29.97F
CRESTON *      MOCLDY    66  63  88 E6        29.99F
HARLAN  *      CLOUDY    66  66 100 CALM      30.01F
LAMONI         MOCLDY    69  63  81 NE6       29.96F
RED OAK *      CLOUDY    72  63  73 NE7       29.96F
SHENANDOAH *     N/A     72  64  78 VRB3      29.97S
$$

IAZ047>049-059>061-072>074-084-040800-
   CENTRAL IOWA

CITY           SKY/WX    TMP DP  RH WIND       PRES   REMARKS
AMES           CLEAR     61  58  90 CALM      29.97S
ANKENY *       MOCLDY    63  63 100 CALM      29.97S
CHARITON *     CLOUDY    68  63  83 CALM      29.97F
DES MOINES     PTCLDY    69  59  70 CALM      29.97S
GRINNELL*      CLEAR     61  57  88 CALM      29.98S
KNOXVILLE *    PTCLDY    64  59  82 SW3       29.96F
MARSHALLTOWN   CLEAR     61  58  90 CALM      29.97S
PELLA *        CLEAR     63  61  94 CALM      29.98F
PERRY *        MOCLDY    64  64 100 CALM      29.98F
$$

IAZ004>006-015-016-023>025-035-036-040800-
   NORTH CENTRAL IOWA

CITY           SKY/WX    TMP DP  RH WIND       PRES   REMARKS
ALGONA *       CLEAR     61  59  94 CALM      29.99S
CLARION *      CLEAR     57  55  94 CALM      29.98S
ESTHERVILLE    CLEAR     56  54  93 W7        29.99R
FORT DODGE *   CLEAR     59  55  88 CALM      29.99S
MASON CITY     CLEAR     58  55  90 W3        29.99S
FOREST CITY *  CLEAR     55  55 100 CALM      29.98S
IOWA FALLS *     N/A     59  55  88 W3        29.99S
$$

IAZ007>011-017>019-026>030-037>042-050>054-066-040800-
   NORTHEAST IOWA

CITY           SKY/WX    TMP DP  RH WIND       PRES   REMARKS
CEDAR RAPIDS   CLEAR     61  59  93 W3        29.95F
CHARLES CITY * CLEAR     57  57 100 W5        29.97S
CLINTON *      CLEAR     57  55  94 W5        29.97S
DECORAH *      CLEAR     57  54  88 CALM      29.94S
DUBUQUE        CLEAR     56  52  86 SW5       29.95S
MONTICELLO *   CLEAR     54  54 100 CALM      29.95S
OELWEIN *      CLEAR     55  55 100 CALM      29.97S
WATERLOO       CLEAR     58  56  93 CALM      29.96R
$$

IAZ064-065-067-068-078-040800-
   EAST CENTRAL IOWA

CITY           SKY/WX    TMP DP  RH WIND       PRES   REMARKS
DAVENPORT      CLEAR     57  55  93 W3        29.95F
IOWA CITY      CLEAR     62  57  83 SW3       29.97S
MT. PLEASANT * CLEAR     63  59  88 CALM      29.97S
MUSCATINE *    CLEAR     59  57  94 CALM      29.95F
QUAD CITIES    CLEAR     61  56  83 S3        29.95S
$$

IAZ062-063-075>077-085>089-095>099-040800-
   SOUTHEAST IOWA

CITY           SKY/WX    TMP DP  RH WIND       PRES   REMARKS
BURLINGTON     CLEAR     62  60  93 N3        29.96S
FAIRFIELD *    CLEAR     61  59  94 W5        29.97S
FORT MADISON * PTCLDY    61  59  94 CALM      29.97S
KEOKUK *       CLOUDY    66  63  88 CALM      29.96S
OSKALOOSA *      N/A     59  57  94 CALM      29.97F
CENTERVILLE *  PTCLDY    66  59  77 CALM      29.98F
OTTUMWA        CLEAR     60  59  96 CALM      29.95F
WASHINGTON *   CLEAR     61  59  94 SW3       29.97F
$$

ABBREVIATIONS USED IN REMARKS
   TC - TEMPERATURES IN CELSIUS
  WCI - WIND CHILL INDEX
   HX - HEAT INDEX
  VSB - VISIBILITY
$$



USA.gov is the U.S. government's official web portal to all federal, state and local government web resources and services.